This is the latest recevied weather packets stored in our database for station/object AB1AU. If no packets are shown the sender has not sent any weather packets the latest 1 day(s).
| Time | Temp. | Humidity | Pressure | Rain* | Wind** | Luminosity | Snow |
|---|---|---|---|---|---|---|---|
| 1778012250 | 23.89° C | 45% | 1004 hPa | 0 mm | 1.34 m/s, 125° | 150 W/m² | - |
| 1778011948 | 23.89° C | 45% | 1003.9 hPa | 0 mm | 2.68 m/s, 195° | 183 W/m² | - |
| 1778011646 | 23.89° C | 45% | 1004.1 hPa | 0 mm | 3.58 m/s, 161° | 215 W/m² | - |
| 1778011342 | 24.44° C | 44% | 1003.8 hPa | 0 mm | 3.58 m/s, 141° | 154 W/m² | - |
| 1778011038 | 25° C | 44% | 1004.2 hPa | 0 mm | 1.79 m/s, 221° | 185 W/m² | - |
| 1778010736 | 25° C | 44% | 1004.1 hPa | 0 mm | 3.13 m/s, 150° | 273 W/m² | - |
| 1778010433 | 25° C | 44% | 1004.1 hPa | 0 mm | 1.34 m/s, 128° | 214 W/m² | - |
| 1778010129 | 25° C | 42% | 1004.3 hPa | 0 mm | 5.36 m/s, 203° | 272 W/m² | - |
| 1778009825 | 25° C | 44% | 1004.4 hPa | 0 mm | 1.79 m/s, 159° | 263 W/m² | - |
| 1778009522 | 24.44° C | 44% | 1004.1 hPa | 0 mm | 1.34 m/s, 184° | 344 W/m² | - |
| 1778009221 | 24.44° C | 43% | 1004.3 hPa | 0 mm | 3.13 m/s, 252° | 186 W/m² | - |
| 1778008918 | 25° C | 42% | 1004.5 hPa | 0 mm | 6.71 m/s, 122° | 347 W/m² | - |
| 1778008616 | 25° C | 44% | 1004.5 hPa | 0 mm | 0.89 m/s, 152° | 345 W/m² | - |
| 1778008314 | 25.56° C | 42% | 1004.6 hPa | 0 mm | 1.34 m/s, 171° | 282 W/m² | - |
| 1778008010 | 25.56° C | 42% | 1004.3 hPa | 0 mm | 2.68 m/s, 119° | 179 W/m² | - |
| 1778007709 | 25° C | 42% | 1004.5 hPa | 0 mm | 2.68 m/s, 142° | 147 W/m² | - |
| 1778007406 | 25° C | 43% | 1004.7 hPa | 0 mm | 1.79 m/s, 184° | 178 W/m² | - |
| 1778007102 | 25° C | 43% | 1004.6 hPa | 0 mm | 2.24 m/s, 148° | 313 W/m² | - |
| 1778006799 | 25° C | 43% | 1004.8 hPa | 0 mm | 1.79 m/s, 130° | 353 W/m² | - |
| 1778006496 | 25° C | 43% | 1004.8 hPa | 0 mm | 1.79 m/s, 194° | 273 W/m² | - |
| 1778006193 | 25° C | 42% | 1004.9 hPa | 0 mm | 1.79 m/s, 157° | 291 W/m² | - |
| 1778005891 | 25° C | 42% | 1004.9 hPa | 0 mm | 4.02 m/s, 158° | 270 W/m² | - |
| 1778005586 | 24.44° C | 43% | 1004.8 hPa | 0 mm | 2.24 m/s, 208° | 81 W/m² | - |
| 1778005284 | 24.44° C | 43% | 1004.8 hPa | 0 mm | 1.79 m/s, 177° | 563 W/m² | - |
| 1778004980 | 24.44° C | 45% | 1005.2 hPa | 0 mm | 1.79 m/s, 143° | 345 W/m² | - |
* Rain latest hour (hover to see other rain measurements)
** Current wind speed in m/s (hover to see current wind gust speed)